This is the latest recevied weather packets stored in our database for station/object WV8BRW. If no packets are shown the sender has not sent any weather packets the latest 10 day(s).
| Time | Temp. | Humidity | Pressure | Rain* | Wind** | Luminosity | Snow |
|---|---|---|---|---|---|---|---|
| 1777942360 | 18.33° C | 74% | 1006.5 hPa | 0 mm | - | 0 W/m² | - |
| 1777942058 | 18.89° C | 73% | 1006.7 hPa | 0 mm | - | 0 W/m² | - |
| 1777941754 | 18.89° C | 73% | 1006.7 hPa | 0 mm | - | 0 W/m² | - |
| 1777941451 | 18.89° C | 73% | 1006.6 hPa | 0 mm | - | 0 W/m² | - |
| 1777941149 | 19.44° C | 71% | 1006.5 hPa | 0 mm | - | 0 W/m² | - |
| 1777940845 | 20° C | 69% | 1006.4 hPa | 0 mm | - | 0 W/m² | - |
| 1777940543 | 20° C | 68% | 1006.5 hPa | 0 mm | - | 0 W/m² | - |
| 1777940240 | 20.56° C | 64% | 1006.4 hPa | 0 mm | - | 3 W/m² | - |
| 1777939937 | 21.11° C | 63% | 1006.7 hPa | 0 mm | - | 7 W/m² | - |
| 1777939634 | 21.11° C | 59% | 1006.5 hPa | 0 mm | - | 10 W/m² | - |
| 1777939332 | 21.67° C | 59% | 1006.5 hPa | 0 mm | - | 14 W/m² | - |
| 1777939028 | 21.67° C | 59% | 1006.6 hPa | 0 mm | - | 14 W/m² | - |
| 1777938724 | 22.22° C | 55% | 1006.4 hPa | 0 mm | - | 13 W/m² | - |
| 1777938422 | 22.22° C | 55% | 1006.6 hPa | 0 mm | - | 14 W/m² | - |
| 1777938119 | 22.22° C | 56% | 1006.7 hPa | 0 mm | - | 18 W/m² | - |
| 1777937815 | 22.78° C | 55% | 1006.7 hPa | 0 mm | - | 21 W/m² | - |
| 1777937511 | 22.78° C | 56% | 1006.6 hPa | 0 mm | - | 28 W/m² | - |
| 1777937209 | 22.78° C | 58% | 1006.4 hPa | 0 mm | - | 50 W/m² | - |
| 1777936905 | 22.78° C | 63% | 1006.5 hPa | 0 mm | - | 46 W/m² | - |
| 1777936602 | 23.33° C | 56% | 1006.5 hPa | 0 mm | - | 42 W/m² | - |
| 1777936298 | 23.33° C | 59% | 1006.5 hPa | 0 mm | - | 46 W/m² | - |
| 1777935995 | 23.89° C | 60% | 1006.4 hPa | 0 mm | - | 57 W/m² | - |
| 1777935694 | 24.44° C | 56% | 1006.5 hPa | 0 mm | - | 64 W/m² | - |
| 1777935392 | 24.44° C | 55% | 1006.5 hPa | 0 mm | - | 81 W/m² | - |
| 1777935087 | 24.44° C | 55% | 1006.4 hPa | 0 mm | - | 94 W/m² | - |
* Rain latest hour (hover to see other rain measurements)
** Current wind speed in m/s (hover to see current wind gust speed)